Wind_Speed
65 65 68 72 67 59 55 56 61 60 60 65 63 65 65 66 65 69 69 64 62 60 53 48 45 42 37 26 28 37 36 35 32 27 18 15 15 16 17 20 26 26 22 25
65 64 69 71 69 69 69 72 67 67 71 71 65 66 61 61 67 66 61 59 58 60 46 43 42 39 34 25 27 34 35 33 28 23 18 18 19 24 27 26 32 27 20 28
66 69 67 69 71 72 71 73 73 73 73 70 64 59 58 68 66 59 54 51 50 48 40 39 39 36 32 23 22 31 33 31 27 20 20 22 24 25 25 26 30 32 33 31
59 65 61 60 63 68 68 73 73 71 69 66 66 69 65 62 58 52 50 44 41 38 36 37 35 35 30 21 18 27 29 28 25 19 19 21 25 22 26 34 39 41 35 29
52 57 62 65 67 64 68 66 64 62 63 62 61 57 62 57 53 49 45 39 36 37 38 35 32 32 28 19 16 24 26 25 23 20 17 23 20 30 41 40 48 47 42 33
51 51 48 52 60 63 63 60 61 61 61 59 60 57 55 52 50 45 38 33 33 34 35 31 28 29 26 15 14 20 25 23 22 23 20 24 26 36 37 43 50 42 46 43
53 50 44 44 46 51 55 58 59 61 60 58 56 52 52 46 42 36 30 21 26 29 31 27 25 27 23 13 12 15 23 20 21 22 20 23 32 33 36 43 46 43 46 50
50 45 48 44 40 42 43 42 43 46 46 46 48 44 39 30 29 25 20 15 20 27 26 25 24 25 21 15 8 12 18 17 18 21 20 18 28 34 31 34 36 41 44 42
53 42 46 38 32 31 35 32 38 31 34 32 32 28 23 23 20 16 12 12 15 25 24 22 22 23 21 16 7 8 12 17 16 18 20 18 18 31 32 33 37 48 40 44
50 44 42 39 30 28 25 30 29 32 26 24 15 18 16 17 16 15 9 6 14 24 23 20 19 20 20 19 8 6 6 14 16 14 17 18 15 23 34 33 38 37 40 37
49 45 44 39 32 32 27 25 29 32 25 15 10 16 14 14 14 9 10 7 16 21 19 18 15 16 16 18 17 6 5 9 14 11 14 16 17 20 37 27 35 33 37 38
44 51 43 39 33 34 27 24 24 29 22 14 13 10 13 16 14 8 11 11 16 16 15 14 11 13 13 14 17 9 7 5 9 12 12 14 17 24 37 24 29 37 33 37
47 49 46 39 36 36 34 28 22 29 25 15 12 8 12 18 16 11 4 9 14 14 14 11 9 11 11 11 14 13 4 8 5 8 11 12 14 19 24 23 26 36 39 34
55 51 46 37 44 35 33 24 27 22 18 15 15 13 15 16 16 10 14 10 11 13 13 10 8 8 9 9 12 12 9 3 6 7 8 11 10 12 15 20 23 26 34 30
57 48 49 40 43 35 33 19 24 15 15 16 16 16 22 22 20 19 11 7 3 11 12 10 6 4 6 6 10 10 8 6 5 9 8 9 10 11 11 14 16 18 19 20
60 46 49 43 42 36 34 22 27 28 20 16 15 12 22 31 22 14 19 16 13 9 11 8 8 2 1 2 4 7 6 6 4 6 11 11 9 14 13 12 11 10 12 15
62 52 47 47 42 39 29 23 28 37 25 24 16 22 17 27 28 32 24 17 12 11 10 8 9 4 1 2 2 2 3 2 4 3 4 11 16 13 12 13 16 13 15 16
58 50 48 53 47 37 31 32 29 36 27 29 31 22 17 22 26 23 21 20 16 15 10 7 10 6 1 3 5 5 4 3 2 3 1 4 10 14 14 15 18 20 19 17
76 56 50 52 48 42 43 34 32 35 38 32 37 24 22 14 23 27 23 24 21 19 11 8 10 9 5 4 4 8 8 8 6 5 6 5 6 8 10 11 11 13 17 19
67 58 53 55 50 42 38 44 33 35 43 42 33 32 25 22 24 26 21 29 23 15 9 12 12 10 9 6 5 7 11 11 11 9 9 9 11 9 9 10 9 9 11 13
65 58 51 51 50 48 44 43 37 28 41 47 40 39 31 22 23 31 25 27 26 22 15 17 16 10 11 8 8 6 8 10 14 14 14 12 12 15 14 13 12 13 13 13
63 55 55 48 54 46 49 46 30 35 42 37 36 28 27 23 21 22 28 26 23 22 17 21 16 11 12 12 10 10 7 10 10 12 15 15 15 15 15 17 18 17 16 14
66 46 41 54 56 55 55 50 30 33 48 47 40 30 18 20 21 22 26 27 26 30 27 24 18 14 17 16 12 11 13 12 11 10 8 9 13 15 16 17 16 17 17 16
67 63 52 58 57 54 53 46 35 36 44 43 40 29 27 26 23 23 25 25 21 19 23 21 16 17 23 22 19 14 17 16 14 13 11 13 11 11 12 12 14 14 16 17
70 63 53 63 61 54 48 43 31 40 46 46 42 39 30 24 27 29 26 30 24 23 24 27 21 20 23 22 23 21 20 20 18 19 19 18 18 17 15 16 17 16 17 20
78 69 57 66 68 64 55 46 42 45 55 47 40 38 23 24 29 25 27 29 36 28 30 30 28 24 21 19 22 21 23 25 22 22 23 24 25 25 23 22 21 23 25 28
Wind_Direction
264 265 266 266 267 265 261 260 268 277 281 289 293 296 300 302 306 309 314 316 320 321 327 329 334 342 345 343 350 353 5 4 6 15 27 52 73 100 122 136 134 143 155 160
268 266 266 267 266 265 266 268 272 280 283 287 289 293 296 298 304 307 310 315 317 323 327 330 338 347 349 341 346 355 8 8 11 21 50 83 100 111 126 137 142 146 138 133
266 267 268 263 264 267 270 271 274 280 282 286 287 287 290 298 301 303 308 311 318 321 325 336 342 350 350 345 347 356 11 14 20 36 70 94 104 118 134 138 137 134 133 119
267 266 267 271 271 269 271 272 274 278 279 279 283 286 290 296 296 299 308 305 315 326 333 340 344 351 353 354 355 359 14 21 32 44 82 103 114 131 141 143 130 107 95 116
266 267 268 269 270 273 273 276 276 278 280 280 281 287 293 294 295 304 302 305 307 327 333 340 348 351 357 8 9 8 19 27 42 59 102 124 133 136 136 141 125 117 118 133
271 270 271 270 270 272 273 275 275 276 276 279 283 287 288 291 293 298 297 307 307 326 327 338 353 352 2 11 15 15 26 31 49 61 101 129 147 149 150 140 138 137 137 145
266 270 271 272 271 270 270 269 270 271 274 275 280 284 285 289 292 285 298 303 319 332 326 339 359 355 4 18 20 23 25 36 49 62 86 133 155 157 154 152 146 153 146 142
267 267 268 269 273 274 275 276 274 270 272 275 276 277 282 286 278 284 294 299 326 332 330 342 359 359 8 23 37 37 28 41 51 64 73 106 159 162 155 160 149 159 151 146
264 264 267 270 273 273 270 274 267 270 266 270 273 275 273 266 276 278 280 305 331 336 332 345 359 2 13 29 55 37 43 41 64 63 74 82 129 166 158 165 153 162 158 155
263 263 266 263 265 267 269 268 271 266 266 265 285 288 266 253 264 277 315 308 337 338 331 346 3 4 12 33 62 69 72 58 61 82 79 84 100 155 161 167 154 161 169 167
255 255 263 261 259 261 262 270 276 261 245 225 279 291 253 245 254 266 254 308 330 328 325 343 8 8 11 35 45 103 97 72 58 82 100 93 103 136 157 151 169 168 167 174
253 251 254 257 257 258 261 271 267 244 235 239 266 248 255 244 270 255 262 290 327 318 323 343 16 15 11 36 46 50 127 102 77 78 109 115 115 141 164 161 161 176 174 179
251 247 245 250 252 255 256 259 266 241 227 230 231 205 243 215 236 212 223 276 302 311 315 346 21 30 11 25 47 52 93 158 118 90 95 118 135 142 165 167 169 179 183 179
244 241 240 239 245 249 257 269 249 265 225 215 217 186 210 214 209 242 229 250 289 299 304 331 14 40 27 25 35 48 54 126 177 149 123 108 120 151 160 163 170 173 189 196
239 240 236 231 245 249 250 246 241 241 236 205 190 192 201 190 204 225 215 249 291 301 298 320 3 34 60 20 19 33 46 68 145 181 171 147 135 129 156 174 176 178 183 190
237 232 232 231 238 241 242 230 218 243 254 233 191 229 201 193 202 223 220 242 269 283 288 304 331 24 57 66 19 17 32 38 90 133 199 195 174 171 157 158 148 161 179 173
240 228 228 228 231 234 235 240 234 235 241 230 200 212 194 199 216 230 234 244 253 261 262 282 302 327 255 217 210 322 345 24 30 84 136 185 194 193 193 187 183 176 182 184
236 230 227 222 226 236 223 237 247 236 241 219 211 208 211 205 225 234 232 242 246 247 235 261 276 291 302 257 222 214 254 273 300 343 195 172 179 200 209 208 207 212 210 209
221 220 223 224 220 222 232 233 240 240 234 225 225 223 206 189 219 229 229 226 227 240 237 228 253 266 248 260 246 223 223 237 245 255 274 256 225 203 194 184 179 185 198 210
223 215 218 223 218 217 224 238 234 238 234 230 230 239 222 205 205 235 221 220 215 245 228 228 230 241 260 242 257 241 231 231 237 237 249 250 238 230 222 213 206 199 190 190
220 213 215 219 218 216 214 228 231 238 217 232 233 215 204 204 212 223 229 217 224 237 238 234 228 217 246 252 239 257 254 239 240 242 239 248 240 236 236 239 239 232 227 229
219 215 211 208 217 212 221 219 225 218 223 206 207 205 190 204 219 225 227 233 219 218 229 240 239 220 242 251 242 233 249 250 254 240 240 241 241 233 235 242 242 239 234 228
212 195 198 206 214 209 215 208 217 218 214 214 219 209 186 209 223 219 213 228 236 232 225 227 236 234 240 247 246 238 235 252 260 251 248 226 238 241 227 232 238 240 241 238
209 205 194 199 212 214 219 215 217 206 212 217 208 209 197 201 219 219 205 211 228 223 220 222 229 241 242 237 236 238 237 238 246 245 252 247 219 225 239 233 237 239 243 245
211 210 201 199 207 208 209 219 212 199 204 203 214 202 206 223 224 218 213 227 224 227 232 231 221 233 242 239 239 232 238 240 239 241 244 245 247 239 236 244 251 255 257 261
210 206 198 199 203 202 207 218 215 203 205 218 207 200 200 226 220 209 209 226 230 231 232 234 233 227 235 235 241 238 240 245 245 243 243 245 251 255 254 253 254 259 263 265
Height
10774 10780 10775 10775 10778 10778 10779 10779 10779 10779 10775 10771 10770 10766 10760 10756 10753 10746 10738 10731 10726 10717 10710 10701 10691 10679 10667 10658 10650 10642 10634 10625 10618 10612 10607 10602 10600 10599 10599 10599 10600 10600 10602 10605
10763 10764 10757 10761 10763 10764 10769 10768 10770 10767 10764 10765 10764 10759 10756 10750 10747 10739 10733 10727 10720 10713 10706 10698 10688 10678 10666 10658 10651 10644 10637 10629 10622 10617 10612 10610 10608 10609 10609 10608 10609 10609 10613 10615
10752 10743 10747 10752 10751 10750 10753 10754 10757 10758 10754 10754 10755 10750 10748 10744 10740 10735 10730 10723 10716 10710 10704 10696 10685 10677 10668 10659 10652 10646 10640 10633 10627 10623 10620 10618 10618 10619 10620 10617 10619 10621 10621 10625
10738 10725 10735 10737 10739 10737 10738 10737 10743 10744 10741 10744 10743 10742 10740 10737 10731 10729 10725 10719 10713 10707 10701 10693 10684 10677 10669 10660 10654 10649 10643 10639 10633 10629 10627 10627 10627 10628 10627 10626 10629 10634 10636 10640
10716 10718 10722 10726 10722 10724 10721 10727 10727 10729 10727 10731 10729 10734 10729 10725 10720 10721 10717 10714 10709 10703 10698 10691 10683 10676 10669 10661 10657 10653 10648 10644 10639 10635 10633 10634 10635 10636 10635 10634 10638 10639 10645 10651
10704 10708 10710 10710 10710 10712 10709 10712 10713 10714 10714 10719 10718 10722 10719 10717 10713 10714 10712 10710 10705 10699 10695 10690 10683 10675 10669 10663 10659 10656 10652 10648 10645 10642 10639 10639 10643 10642 10641 10644 10645 10648 10649 10657
10694 10697 10698 10699 10699 10697 10698 10699 10701 10701 10703 10707 10708 10712 10710 10710 10708 10706 10706 10704 10701 10696 10693 10688 10681 10675 10671 10665 10661 10659 10656 10653 10650 10647 10645 10645 10647 10648 10650 10650 10655 10657 10660 10663
10684 10687 10685 10688 10692 10691 10690 10690 10691 10689 10693 10696 10698 10700 10702 10702 10701 10701 10700 10700 10696 10694 10691 10687 10680 10675 10672 10666 10664 10662 10660 10657 10655 10653 10651 10649 10651 10653 10658 10660 10661 10664 10669 10671
10670 10677 10677 10681 10684 10683 10681 10683 10678 10684 10684 10686 10688 10692 10696 10695 10695 10696 10697 10696 10694 10692 10690 10686 10680 10675 10672 10667 10665 10664 10663 10661 10661 10659 10656 10655 10654 10657 10662 10665 10668 10671 10675 10678
10658 10666 10669 10672 10675 10675 10675 10673 10676 10677 10680 10680 10681 10683 10686 10689 10689 10693 10693 10693 10690 10690 10688 10685 10679 10675 10673 10668 10666 10666 10666 10665 10665 10665 10663 10661 10659 10660 10666 10671 10674 10677 10682 10685
10648 10656 10657 10663 10667 10667 10669 10671 10670 10671 10673 10672 10675 10679 10680 10680 10683 10688 10690 10689 10688 10689 10687 10684 10679 10676 10675 10671 10668 10669 10669 10669 10669 10669 10669 10668 10666 10666 10672 10676 10679 10682 10685 10689
10638 10641 10649 10656 10659 10658 10662 10664 10664 10665 10664 10668 10671 10674 10676 10674 10680 10684 10687 10687 10686 10687 10685 10683 10678 10676 10676 10673 10670 10670 10671 10672 10672 10672 10672 10674 10674 10674 10676 10679 10682 10686 10689 10694
10627 10632 10640 10647 10650 10649 10653 10657 10657 10655 10657 10661 10665 10668 10672 10675 10677 10681 10682 10683 10684 10684 10683 10682 10678 10676 10675 10675 10673 10672 10673 10674 10676 10676 10676 10677 10679 10681 10682 10682 10685 10688 10692 10695
10610 10619 10629 10639 10636 10642 10645 10649 10650 10650 10652 10655 10660 10663 10669 10671 10675 10676 10678 10679 10681 10680 10682 10681 10678 10676 10675 10675 10674 10674 10675 10675 10677 10680 10680 10680 10681 10683 10685 10686 10688 10691 10694 10696
10594 10609 10615 10626 10629 10635 10636 10641 10643 10645 10646 10650 10655 10659 10664 10666 10669 10670 10675 10677 10677 10679 10680 10679 10678 10675 10675 10676 10675 10675 10676 10677 10678 10681 10683 10683 10685 10685 10686 10688 10690 10692 10695 10697
10580 10600 10605 10614 10621 10626 10626 10632 10639 10640 10644 10646 10652 10655 10659 10662 10665 10667 10670 10673 10675 10677 10678 10677 10677 10676 10675 10675 10676 10676 10676 10677 10679 10681 10683 10685 10687 10688 10689 10690 10690 10692 10693 10695
10565 10585 10597 10604 10611 10617 10625 10628 10631 10630 10635 10640 10646 10650 10656 10658 10662 10664 10667 10670 10672 10674 10676 10674 10675 10676 10675 10675 10676 10677 10678 10679 10679 10680 10682 10684 10687 10689 10690 10691 10692 10694 10695 10697
10556 10572 10581 10591 10600 10611 10619 10619 10622 10625 10631 10633 10638 10644 10650 10651 10655 10657 10661 10667 10669 10670 10671 10671 10673 10675 10674 10674 10675 10676 10678 10679 10680 10681 10682 10683 10685 10686 10688 10689 10691 10692 10694 10696
10542 10558 10568 10579 10595 10603 10604 10613 10615 10616 10620 10626 10631 10636 10640 10643 10652 10658 10657 10662 10664 10665 10666 10667 10672 10672 10673 10673 10673 10675 10677 10679 10679 10680 10682 10682 10684 10685 10686 10687 10689 10690 10692 10694
10531 10548 10556 10567 10583 10595 10599 10598 10606 10608 10612 10619 10625 10630 10634 10640 10647 10647 10651 10654 10659 10661 10659 10664 10669 10670 10672 10672 10672 10673 10676 10677 10678 10679 10680 10682 10683 10685 10687 10688 10689 10690 10692 10693
10518 10534 10546 10557 10570 10583 10587 10591 10599 10605 10607 10609 10616 10619 10628 10635 10640 10639 10645 10648 10652 10656 10658 10661 10664 10667 10669 10671 10672 10671 10673 10676 10676 10677 10679 10680 10683 10684 10686 10687 10688 10689 10690 10692
10507 10522 10536 10548 10556 10571 10579 10587 10591 10594 10594 10605 10611 10616 10621 10626 10634 10637 10641 10644 10647 10651 10655 10659 10662 10663 10666 10669 10670 10671 10672 10672 10673 10675 10676 10678 10680 10682 10683 10684 10685 10686 10688 10690
10494 10512 10525 10537 10543 10549 10557 10571 10584 10591 10593 10602 10608 10611 10611 10619 10622 10627 10638 10638 10640 10644 10650 10654 10657 10658 10661 10664 10666 10668 10671 10671 10671 10671 10673 10676 10676 10677 10680 10681 10682 10684 10686 10687
10480 10494 10510 10522 10534 10546 10552 10566 10574 10578 10584 10590 10597 10603 10606 10612 10616 10620 10627 10631 10636 10641 10644 10646 10650 10652 10655 10658 10661 10664 10666 10668 10669 10670 10670 10670 10672 10675 10676 10678 10679 10680 10681 10681
10470 10481 10499 10514 10523 10536 10546 10556 10567 10574 10577 10581 10589 10596 10601 10604 10609 10614 10620 10625 10629 10633 10636 10639 10641 10644 10647 10651 10655 10658 10660 10662 10663 10666 10667 10667 10667 10670 10673 10674 10675 10677 10677 10677
10450 10473 10489 10504 10513 10524 10534 10545 10555 10562 10567 10575 10583 10589 10592 10596 10600 10608 10613 10615 10620 10623 10627 10630 10634 10638 10641 10645 10647 10652 10655 10656 10657 10658 10660 10662 10663 10665 10667 10669 10671 10671 10671 10671